Weather History for KHCO - October, 2012

Change the Weather History Date:

Monday, October 8, 2012

  Actual Average Record
Temperature  
Mean Temperature 42 °F -  
Max Temperature 46 °F 56 °F 85 °F (1943)
Min Temperature 39 °F 34 °F 19 °F (1989)
Degree Days  
Heating Degree Days 22    
Moisture  
Dew Point 41 °F    
Average Humidity 92    
Maximum Humidity 100    
Minimum Humidity 81    
Precipitation  
Precipitation 0.16 in - - ()
Sea Level Pressure  
Sea Level Pressure 29.55 in    
Wind  
Wind Speed 6 mph (NW)    
Max Wind Speed 14 mph    
Max Gust Speed 17 mph    
Visibility 9 miles    
Events Rain    
Averages and records for this station are not official NWS values.
T = Trace of Precipitation, MM = Missing Value Source: NWS Daily Summary

Daily Weather History Graph

Daily Weather History Graph

Search for Another Location

Airport or City:

Trip Planner

Search our weather history database for the weather conditions in past years. The results will help you decide how hot, cold, wet, or windy it might be!

Date:

Astronomy

Oct. 08, 2012 Rise Set
Actual Time 7:38 AM CDT 6:51 PM CDT
Civil Twilight 7:06 AM CDT 7:22 PM CDT
Nautical Twilight 6:30 AM CDT 7:58 PM CDT
Astronomical Twilight 5:53 AM CDT 8:35 PM CDT
Moon No Moon Rise 3:11 PM CDT (10/8)
Length of Visible Light 12h 15m
Length of Day
11h 12m
Last Quarter, 46% of the Moon is Illuminated
Oct 8
Last Quarter
Oct 15
New
Oct 21
First Quarter
Oct 29
Full
Nov 6
Last Quarter

Hourly Weather History & Observations

Time (CDT) Temp. Windchill Dew Point Humidity Pressure Visibility Wind Dir Wind Speed Gust Speed Precip Events Conditions
7:41 AM 39.2 °F 35.0 °F 37.4 °F 93% 29.55 in 10.0 mi East 5.8 mph - N/A   Overcast
8:01 AM 39.2 °F 35.0 °F 37.4 °F 93% 29.55 in 10.0 mi East 5.8 mph - N/A   Overcast
8:40 AM 39.2 °F 33.6 °F 37.4 °F 93% 29.54 in 7.0 mi East 8.1 mph - 0.04 in Rain Light Rain
8:54 AM 39.2 °F 33.6 °F 37.4 °F 93% 29.53 in 7.0 mi ESE 8.1 mph - 0.05 in Rain Light Rain
9:13 AM 39.2 °F 33.6 °F 37.4 °F 93% 29.53 in 7.0 mi East 8.1 mph - 0.01 in Rain Light Rain
9:34 AM 39.2 °F 34.2 °F 37.4 °F 93% 29.52 in 7.0 mi East 6.9 mph - 0.02 in Rain Rain
9:54 AM 39.2 °F 35.0 °F 37.4 °F 93% 29.53 in 5.0 mi East 5.8 mph - 0.04 in Rain Rain
10:13 AM 39.2 °F 35.9 °F 37.4 °F 93% 29.52 in 5.0 mi ESE 4.6 mph - 0.03 in Rain Light Rain
10:34 AM 39.2 °F 35.9 °F 37.4 °F 93% 29.52 in 7.0 mi ESE 4.6 mph - 0.05 in Rain Light Rain
10:54 AM 39.2 °F 35.0 °F 39.2 °F 100% 29.51 in 7.0 mi East 5.8 mph - 0.06 in Rain Light Rain
11:13 AM 39.2 °F 35.9 °F 39.2 °F 100% 29.51 in 7.0 mi East 4.6 mph - N/A Rain Light Rain
11:34 AM 39.2 °F 35.9 °F 39.2 °F 100% 29.51 in 7.0 mi East 4.6 mph - N/A   Light Drizzle
11:54 AM 39.2 °F - 39.2 °F 100% 29.52 in - Calm Calm - N/A   Unknown
12:14 PM 41.0 °F 39.0 °F 41.0 °F 100% 29.52 in 7.0 mi North 3.5 mph - N/A   Light Drizzle
12:54 PM 42.8 °F 41.1 °F 41.0 °F 93% 29.52 in 7.0 mi NNW 3.5 mph - N/A   Light Drizzle
1:14 PM 42.8 °F 40.1 °F 41.0 °F 93% 29.52 in 10.0 mi NW 4.6 mph - N/A   Overcast
1:34 PM 42.8 °F 40.1 °F 41.0 °F 93% 29.53 in 10.0 mi NW 4.6 mph - N/A   Overcast
1:54 PM 44.6 °F 42.2 °F 42.8 °F 93% 29.52 in 10.0 mi NW 4.6 mph - N/A   Overcast
2:14 PM 44.6 °F 40.7 °F 42.8 °F 93% 29.53 in 10.0 mi NW 6.9 mph - N/A   Overcast
2:34 PM 44.6 °F 42.2 °F 42.8 °F 93% 29.53 in 10.0 mi NNW 4.6 mph - N/A   Overcast
2:54 PM 44.6 °F 42.2 °F 42.8 °F 93% 29.53 in 10.0 mi NW 4.6 mph - N/A   Overcast
3:14 PM 44.6 °F 40.7 °F 42.8 °F 93% 29.54 in 10.0 mi NW 6.9 mph - N/A   Overcast
3:34 PM 44.6 °F 41.4 °F 42.8 °F 93% 29.54 in 10.0 mi NNW 5.8 mph - N/A   Overcast
3:54 PM 44.6 °F 43.1 °F 42.8 °F 93% 29.54 in 10.0 mi NW 3.5 mph - N/A   Overcast
4:14 PM 44.6 °F 43.1 °F 42.8 °F 93% 29.54 in 10.0 mi NW 3.5 mph - N/A   Overcast
4:34 PM 44.6 °F 43.1 °F 42.8 °F 93% 29.54 in 10.0 mi NW 3.5 mph - N/A   Mostly Cloudy
4:54 PM 46.4 °F 44.3 °F 42.8 °F 87% 29.54 in 10.0 mi NW 4.6 mph - N/A   Mostly Cloudy
5:14 PM 46.4 °F 44.3 °F 42.8 °F 87% 29.55 in 10.0 mi West 4.6 mph - N/A   Overcast
5:34 PM 44.6 °F - 42.8 °F 93% 29.55 in 7.0 mi Calm Calm - N/A   Overcast
5:54 PM 44.6 °F - 42.8 °F 93% 29.56 in 10.0 mi Calm Calm - N/A   Mostly Cloudy
6:14 PM 44.6 °F - 42.8 °F 93% 29.57 in 7.0 mi Calm Calm - 0.01 in Rain Rain
6:34 PM 44.6 °F 43.1 °F 44.6 °F 100% 29.57 in 10.0 mi SSW 3.5 mph - 0.01 in   Overcast
6:54 PM 44.6 °F 41.4 °F 42.8 °F 93% 29.57 in 10.0 mi West 5.8 mph - 0.01 in   Overcast
7:14 PM 44.6 °F 41.4 °F 42.8 °F 93% 29.57 in 10.0 mi WSW 5.8 mph - N/A   Overcast
7:34 PM 44.6 °F 39.7 °F 42.8 °F 93% 29.58 in 10.0 mi West 9.2 mph - N/A   Overcast
7:54 PM 44.6 °F 39.7 °F 42.8 °F 93% 29.57 in 10.0 mi West 9.2 mph - N/A   Overcast
8:14 PM 44.6 °F 40.2 °F 42.8 °F 93% 29.58 in 10.0 mi West 8.1 mph - N/A   Overcast
8:34 PM 44.6 °F 38.8 °F 42.8 °F 93% 29.58 in 10.0 mi West 11.5 mph - N/A   Overcast
8:54 PM 44.6 °F 38.1 °F 39.2 °F 81% 29.58 in 10.0 mi WNW 13.8 mph 17.3 mph N/A   Overcast
9:14 PM 44.6 °F 38.4 °F 39.2 °F 81% 29.58 in 10.0 mi West 12.7 mph - N/A   Mostly Cloudy
9:34 PM 42.8 °F 37.0 °F 39.2 °F 87% 29.58 in 10.0 mi West 10.4 mph - N/A   Scattered Clouds
9:54 PM 42.8 °F 37.5 °F 39.2 °F 87% 29.58 in 10.0 mi West 9.2 mph - N/A   Scattered Clouds
10:14 PM 42.8 °F 36.6 °F 37.4 °F 81% 29.58 in 10.0 mi West 11.5 mph - N/A   Scattered Clouds
10:54 PM 42.8 °F 36.6 °F 37.4 °F 81% 29.58 in 10.0 mi West 11.5 mph - N/A   Overcast
11:14 PM 39.2 °F 33.6 °F 37.4 °F 93% 29.58 in 10.0 mi West 8.1 mph - N/A   Scattered Clouds
11:34 PM 39.2 °F 33.6 °F 37.4 °F 93% 29.58 in 10.0 mi West 8.1 mph - N/A   Mostly Cloudy